ROMMA est une association bénévole à but non lucratif. Votre soutien est indispensable : ADHERER à ROMMA ou FAIRE un DON

Chambon - (38, Isère)

Oisans (2460 m)   Longitude: 06° 10' 42" E   Latitude: 45° 01' 32" N Station partenaire n°803
 

Détail journalier du     <<     >>

Température Humidité Vent Dir Rafale Dir. rafale Neige 1 Neige 2
Heure (°C) (%) (km/h) (km/h) (cm) (cm)
01:00 -3.7993NNE10ENE194240
02:00 -3.8994NE10NE194240
03:00 -4.19910NE18NE194240
04:00 -4.39910NE18NE194240
05:00 -4.7997NE14NE194240
06:00 -4.8995N12NE194240
07:00 -4.8998N13NE194240
08:00 -4.9986NNE13NNE194240
09:00 -4.8986NE11NE194240
10:00 -3.6949NNE18NNE194240
11:00 -2.88710NNE19NNE194240
12:00 -2.98911NE18NE194240
13:00 -2.2869NNE18NNE193240
14:00 -2.1868N18N193240
15:00 -2.0847N19NNE193240
16:00 -1.0775NNE16NNE193240
17:00 -2.0877NNE18NNO193240
18:00 -2.9939N22N193240
19:00 -3.29313N23N193240
20:00 -3.69617NE27NE193240
21:00 -3.69619NNE33NE193240
22:00 -3.69621NE36NE193239
23:00 -3.79720NE34NE193239
minuit -3.99917NNE25NE193240

Graphique du 10-04-2019

 

Serveur OMMA